NOZ1152 ENGM-ENKB

Flight info

Callsign NOZ1152
Flight time 0h 44m
Altitude 28000
Route EVTOG DCT PIGED DCT VEPUL
Aircraft B738/M-SDE2E3FGHIRWXY/LB1

Departure

Time 2026-05-05 15:02
Airport Oslo-Gardermoen International Airport (ENGM)

Arrival

Time 2026-05-05 15:47
Airport Kristiansund Airport, Kvernberget (ENKB)
Time Latitude Longitude Altitude Speed Heading
2026-05-05 14:15 60.19637 11.10232 677 ft 0 kts 285°
2026-05-05 14:44 60.19633 11.10261 675 ft 2 kts 285°
2026-05-05 14:44 60.19629 11.10293 676 ft 2 kts 287°
2026-05-05 14:44 60.19622 11.10323 673 ft 2 kts 320°
2026-05-05 14:45 60.19609 11.10344 674 ft 2 kts 327°
2026-05-05 14:45 60.19593 11.10351 676 ft 2 kts 12°
2026-05-05 14:45 60.19586 11.10347 677 ft 0 kts 15°
2026-05-05 14:50 60.19594 11.10355 678 ft 3 kts 29°
2026-05-05 14:50 60.19623 11.10413 679 ft 8 kts 33°
2026-05-05 14:50 60.19696 11.10459 679 ft 13 kts 15°
2026-05-05 14:50 60.19789 11.10512 679 ft 14 kts 16°
2026-05-05 14:51 60.19879 11.10549 679 ft 13 kts 345°
2026-05-05 14:51 60.19918 11.10395 679 ft 13 kts 285°
2026-05-05 14:51 60.19943 11.10225 677 ft 13 kts 285°
2026-05-05 14:51 60.19966 11.10057 678 ft 12 kts 286°
2026-05-05 14:52 60.19991 11.09890 678 ft 13 kts 286°
2026-05-05 14:52 60.20016 11.09715 675 ft 13 kts 286°
2026-05-05 14:52 60.20041 11.09542 675 ft 13 kts 286°
2026-05-05 14:52 60.20066 11.09370 677 ft 13 kts 285°
2026-05-05 14:53 60.20090 11.09198 676 ft 13 kts 286°
2026-05-05 14:53 60.20116 11.09015 674 ft 14 kts 286°
2026-05-05 14:53 60.20169 11.08900 676 ft 13 kts
2026-05-05 14:53 60.20266 11.08950 676 ft 15 kts 17°
2026-05-05 14:54 60.20364 11.09006 673 ft 15 kts 15°
2026-05-05 14:54 60.20468 11.09067 673 ft 16 kts 16°
2026-05-05 14:54 60.20579 11.09131 675 ft 15 kts 15°
2026-05-05 14:54 60.20596 11.09140 673 ft 1 kts 15°
2026-05-05 14:55 60.20598 11.09141 673 ft 0 kts 15°
2026-05-05 14:55 60.20600 11.09140 673 ft 2 kts
2026-05-05 14:55 60.20637 11.09100 673 ft 9 kts 308°
2026-05-05 14:55 60.20600 11.08973 675 ft 17 kts 197°
2026-05-05 14:56 60.20471 11.08900 675 ft 20 kts 196°
2026-05-05 14:56 60.20338 11.08823 676 ft 20 kts 196°
2026-05-05 14:56 60.20201 11.08744 674 ft 19 kts 196°
2026-05-05 14:56 60.20076 11.08671 674 ft 18 kts 196°
2026-05-05 14:57 60.19952 11.08600 673 ft 19 kts 196°
2026-05-05 14:57 60.19815 11.08521 677 ft 22 kts 196°
2026-05-05 14:57 60.19674 11.08439 678 ft 21 kts 196°
2026-05-05 14:57 60.19536 11.08360 678 ft 20 kts 196°
2026-05-05 14:58 60.19409 11.08287 679 ft 17 kts 195°
2026-05-05 14:58 60.19296 11.08222 679 ft 17 kts 196°
2026-05-05 14:58 60.19184 11.08157 679 ft 17 kts 196°
2026-05-05 14:58 60.19063 11.08087 680 ft 19 kts 196°
2026-05-05 14:59 60.18938 11.08015 680 ft 19 kts 196°
2026-05-05 14:59 60.18807 11.07940 680 ft 21 kts 196°
2026-05-05 14:59 60.18665 11.07860 681 ft 20 kts 196°
2026-05-05 14:59 60.18572 11.07786 680 ft 14 kts 226°
2026-05-05 15:00 60.18574 11.07643 678 ft 0 kts 286°
2026-05-05 15:01 60.18575 11.07635 678 ft 2 kts 286°
2026-05-05 15:01 60.18584 11.07573 681 ft 8 kts 291°
2026-05-05 15:01 60.18640 11.07475 680 ft 13 kts 344°
2026-05-05 15:01 60.18738 11.07512 679 ft 18 kts 15°
2026-05-05 15:02 60.18988 11.07654 682 ft 69 kts 16°
2026-05-05 15:02 60.19663 11.08040 677 ft 133 kts 17°
2026-05-05 15:02 60.20688 11.08668 937 ft 162 kts 13°
2026-05-05 15:02 60.21752 11.09270 1788 ft 162 kts
2026-05-05 15:03 60.22925 11.09892 2189 ft 189 kts
2026-05-05 15:03 60.24291 11.10601 2451 ft 213 kts 10°
2026-05-05 15:03 60.25789 11.11339 2822 ft 227 kts
2026-05-05 15:03 60.27432 11.11120 3147 ft 245 kts 347°
2026-05-05 15:04 60.29110 11.10534 4046 ft 247 kts 347°
2026-05-05 15:04 60.30825 11.09968 4808 ft 251 kts 347°
2026-05-05 15:04 60.32562 11.09417 5606 ft 255 kts 348°
2026-05-05 15:04 60.34278 11.08649 6432 ft 253 kts 332°
2026-05-05 15:05 60.36896 11.03948 8015 ft 254 kts 309°
2026-05-05 15:05 60.38068 11.01224 8707 ft 259 kts 309°
2026-05-05 15:05 60.39254 10.98454 9493 ft 262 kts 309°
2026-05-05 15:06 60.40462 10.95651 10164 ft 268 kts 309°
2026-05-05 15:06 60.41745 10.92695 10362 ft 291 kts 310°
2026-05-05 15:06 60.43133 10.89515 10548 ft 312 kts 310°
2026-05-05 15:06 60.44618 10.86120 10767 ft 330 kts 310°
2026-05-05 15:07 60.46050 10.82435 11263 ft 336 kts 298°
2026-05-05 15:07 60.46752 10.77934 12023 ft 337 kts 278°
2026-05-05 15:07 60.46701 10.73173 12737 ft 343 kts 261°
2026-05-05 15:07 60.45969 10.68526 13403 ft 350 kts 253°
2026-05-05 15:08 60.45099 10.63893 14093 ft 353 kts 252°
2026-05-05 15:08 60.44210 10.59263 14924 ft 351 kts 252°
2026-05-05 15:08 60.43330 10.54654 15742 ft 351 kts 252°
2026-05-05 15:08 60.42457 10.50028 16539 ft 352 kts 253°
2026-05-05 15:09 60.41604 10.45459 17328 ft 352 kts 253°
2026-05-05 15:09 60.40739 10.40819 18095 ft 353 kts 253°
2026-05-05 15:09 60.39872 10.36170 18740 ft 353 kts 253°
2026-05-05 15:09 60.39054 10.31502 19425 ft 350 kts 259°
2026-05-05 15:10 60.38795 10.26672 20153 ft 344 kts 272°
2026-05-05 15:10 60.39122 10.21914 20910 ft 341 kts 281°
2026-05-05 15:10 60.39892 10.17370 21595 ft 346 kts 295°
2026-05-05 15:10 60.41376 10.13468 22198 ft 356 kts 308°
2026-05-05 15:11 60.43315 10.10186 22578 ft 372 kts 318°
2026-05-05 15:11 60.45694 10.07815 23045 ft 393 kts 334°
2026-05-05 15:11 60.48400 10.06552 23566 ft 403 kts 339°
2026-05-05 15:11 60.51181 10.05561 23930 ft 408 kts 340°
2026-05-05 15:12 60.53988 10.04577 24283 ft 410 kts 339°
2026-05-05 15:12 60.56807 10.03525 24666 ft 412 kts 339°
2026-05-05 15:12 60.59629 10.02428 25085 ft 415 kts 338°
2026-05-05 15:12 60.62472 10.01307 25471 ft 417 kts 338°
2026-05-05 15:13 60.65330 10.00176 25873 ft 419 kts 338°
2026-05-05 15:13 60.67231 9.99425 26192 ft 421 kts 339°
2026-05-05 15:13 60.70119 9.98282 26491 ft 425 kts 340°
2026-05-05 15:13 60.73028 9.97133 26829 ft 427 kts 340°
2026-05-05 15:14 60.75948 9.95982 27311 ft 427 kts 340°
2026-05-05 15:14 60.78859 9.94832 27782 ft 425 kts 339°
2026-05-05 15:14 60.81760 9.93550 27819 ft 424 kts 333°
2026-05-05 15:14 60.84369 9.91075 27875 ft 410 kts 322°
2026-05-05 15:15 60.86865 9.88255 27853 ft 408 kts 323°
2026-05-05 15:15 60.89345 9.85489 27848 ft 404 kts 323°
2026-05-05 15:15 60.91816 9.82754 27867 ft 404 kts 323°
2026-05-05 15:15 60.94299 9.80015 27866 ft 406 kts 323°
2026-05-05 15:16 60.96790 9.77276 27855 ft 407 kts 323°
2026-05-05 15:16 60.99291 9.74529 27918 ft 408 kts 324°
2026-05-05 15:16 61.01803 9.71766 27869 ft 410 kts 324°
2026-05-05 15:16 61.04321 9.68997 27896 ft 411 kts 325°
2026-05-05 15:17 61.06850 9.66212 27882 ft 412 kts 325°
2026-05-05 15:17 61.09384 9.63417 27872 ft 413 kts 325°
2026-05-05 15:17 61.11923 9.60611 27872 ft 414 kts 325°
2026-05-05 15:17 61.14464 9.57797 27879 ft 414 kts 325°
2026-05-05 15:18 61.17006 9.54978 27864 ft 415 kts 325°
2026-05-05 15:18 61.19548 9.52152 27874 ft 415 kts 325°
2026-05-05 15:18 61.22089 9.49323 27868 ft 414 kts 325°
2026-05-05 15:18 61.24629 9.46490 27876 ft 414 kts 325°
2026-05-05 15:19 61.27163 9.43658 27879 ft 413 kts 324°
2026-05-05 15:19 61.29691 9.40828 27872 ft 412 kts 324°
2026-05-05 15:19 61.32179 9.38036 27873 ft 411 kts 324°
2026-05-05 15:19 61.34728 9.35170 27886 ft 411 kts 324°
2026-05-05 15:20 61.37242 9.32339 27866 ft 411 kts 324°
2026-05-05 15:20 61.39720 9.29543 27868 ft 410 kts 324°
2026-05-05 15:20 61.42258 9.26673 27886 ft 409 kts 324°
2026-05-05 15:20 61.44763 9.23836 27879 ft 409 kts 324°
2026-05-05 15:21 61.47265 9.20996 27887 ft 409 kts 324°
2026-05-05 15:21 61.49766 9.18152 27861 ft 410 kts 325°
2026-05-05 15:21 61.52268 9.15302 27876 ft 409 kts 324°
2026-05-05 15:21 61.54770 9.12447 27878 ft 409 kts 324°
2026-05-05 15:22 61.57268 9.09592 27882 ft 409 kts 324°
2026-05-05 15:22 61.59767 9.06730 27895 ft 409 kts 324°
2026-05-05 15:22 61.62273 9.03854 27921 ft 410 kts 325°
2026-05-05 15:22 61.64781 9.00970 27905 ft 412 kts 326°
2026-05-05 15:23 61.67268 8.98105 27898 ft 413 kts 326°
2026-05-05 15:23 61.69792 8.95194 27885 ft 414 kts 326°
2026-05-05 15:23 61.72316 8.92278 27897 ft 414 kts 326°
2026-05-05 15:23 61.74839 8.89356 27900 ft 414 kts 325°
2026-05-05 15:24 61.77368 8.86422 27887 ft 415 kts 326°
2026-05-05 15:24 61.79894 8.83485 27899 ft 415 kts 325°
2026-05-05 15:24 61.82401 8.80569 27875 ft 405 kts 325°
2026-05-05 15:24 61.84848 8.77722 27510 ft 397 kts 325°
2026-05-05 15:25 61.87243 8.74925 27069 ft 391 kts 325°
2026-05-05 15:25 61.89600 8.72163 26640 ft 385 kts 325°
2026-05-05 15:25 61.91933 8.69423 26167 ft 381 kts 325°
2026-05-05 15:25 61.94240 8.66714 25702 ft 376 kts 325°
2026-05-05 15:26 61.96515 8.64035 25334 ft 371 kts 326°
2026-05-05 15:26 61.98754 8.61386 24929 ft 367 kts 326°
2026-05-05 15:26 62.00981 8.58747 24477 ft 364 kts 326°
2026-05-05 15:26 62.03184 8.56129 24046 ft 361 kts 326°
2026-05-05 15:27 62.05372 8.53528 23605 ft 359 kts 327°
2026-05-05 15:27 62.07545 8.50940 23099 ft 357 kts 327°
2026-05-05 15:27 62.09702 8.48366 22620 ft 353 kts 327°
2026-05-05 15:27 62.11829 8.45826 22198 ft 348 kts 327°
2026-05-05 15:28 62.13934 8.43307 21765 ft 345 kts 327°
2026-05-05 15:28 62.16019 8.40809 21342 ft 342 kts 327°
2026-05-05 15:28 62.18085 8.38329 20912 ft 339 kts 327°
2026-05-05 15:28 62.20135 8.35865 20496 ft 336 kts 327°
2026-05-05 15:29 62.22184 8.33473 20107 ft 334 kts 328°
2026-05-05 15:29 62.24203 8.31169 19690 ft 333 kts 328°
2026-05-05 15:29 62.26240 8.28854 19274 ft 330 kts 329°
2026-05-05 15:29 62.28261 8.26553 18904 ft 328 kts 329°
2026-05-05 15:30 62.30274 8.24253 18485 ft 327 kts 329°
2026-05-05 15:30 62.32278 8.21954 18069 ft 326 kts 329°
2026-05-05 15:30 62.34278 8.19655 17616 ft 325 kts 329°
2026-05-05 15:30 62.36262 8.17368 17227 ft 323 kts 329°
2026-05-05 15:31 62.38233 8.15092 16823 ft 321 kts 329°
2026-05-05 15:31 62.40202 8.12812 16438 ft 321 kts 329°
2026-05-05 15:31 62.42176 8.10524 16017 ft 324 kts 329°
2026-05-05 15:31 62.44188 8.08189 15618 ft 331 kts 329°
2026-05-05 15:32 62.46220 8.05828 15217 ft 332 kts 329°
2026-05-05 15:32 62.48253 8.03466 14796 ft 330 kts 329°
2026-05-05 15:32 62.50258 8.01130 14386 ft 327 kts 329°
2026-05-05 15:32 62.52256 7.98796 14000 ft 325 kts 329°
2026-05-05 15:33 62.54263 7.96552 13575 ft 325 kts 335°
2026-05-05 15:33 62.56468 7.95448 13112 ft 327 kts 349°
2026-05-05 15:33 62.58721 7.94837 12703 ft 326 kts 350°
2026-05-05 15:33 62.60966 7.94209 12309 ft 324 kts 349°
2026-05-05 15:34 62.63202 7.93547 11881 ft 324 kts 348°
2026-05-05 15:34 62.65422 7.92863 11481 ft 321 kts 348°
2026-05-05 15:34 62.67627 7.92170 11103 ft 320 kts 349°
2026-05-05 15:34 62.69833 7.91470 10714 ft 320 kts 349°
2026-05-05 15:35 62.72022 7.90803 10481 ft 313 kts 352°
2026-05-05 15:35 62.74159 7.91340 10336 ft 311 kts 17°
2026-05-05 15:35 62.76049 7.93487 10219 ft 305 kts 31°
2026-05-05 15:35 62.77781 7.96084 10087 ft 299 kts 33°
2026-05-05 15:36 62.79446 7.98708 9965 ft 292 kts 34°
2026-05-05 15:36 62.81076 8.01286 9778 ft 288 kts 33°
2026-05-05 15:36 62.82703 8.03841 9457 ft 288 kts 33°
2026-05-05 15:36 62.84337 8.06389 9167 ft 287 kts 33°
2026-05-05 15:37 62.85964 8.08916 8888 ft 286 kts 32°
2026-05-05 15:37 62.87580 8.11417 8586 ft 284 kts 33°
2026-05-05 15:37 62.89195 8.13918 8320 ft 283 kts 33°
2026-05-05 15:37 62.90798 8.16396 8059 ft 282 kts 33°
2026-05-05 15:38 62.92402 8.18878 7769 ft 282 kts 32°
2026-05-05 15:38 62.94005 8.21361 7484 ft 282 kts 33°
2026-05-05 15:38 62.95600 8.23836 7283 ft 279 kts 33°
2026-05-05 15:38 62.97182 8.26291 7013 ft 279 kts 33°
2026-05-05 15:39 62.98771 8.28759 6723 ft 279 kts 33°
2026-05-05 15:39 63.00354 8.31223 6464 ft 279 kts 33°
2026-05-05 15:39 63.01939 8.33663 6194 ft 277 kts 30°
2026-05-05 15:39 63.03653 8.35526 5913 ft 272 kts 19°
2026-05-05 15:40 63.05402 8.37048 5729 ft 269 kts 18°
2026-05-05 15:40 63.07119 8.38543 5619 ft 262 kts 19°
2026-05-05 15:40 63.08815 8.39763 5499 ft 250 kts
2026-05-05 15:40 63.10468 8.39288 5396 ft 234 kts 335°
2026-05-05 15:41 63.11878 8.37699 5301 ft 223 kts 323°
2026-05-05 15:41 63.13139 8.35855 5137 ft 219 kts 321°
2026-05-05 15:41 63.14400 8.33980 4915 ft 217 kts 321°
2026-05-05 15:41 63.15592 8.31972 4681 ft 212 kts 304°
2026-05-05 15:42 63.16166 8.29131 4479 ft 200 kts 275°
2026-05-05 15:42 63.16119 8.26093 4240 ft 198 kts 256°
2026-05-05 15:42 63.15793 8.23133 4020 ft 198 kts 255°
2026-05-05 15:42 63.15472 8.20201 3794 ft 194 kts 255°
2026-05-05 15:43 63.15162 8.17347 3586 ft 186 kts 256°
2026-05-05 15:43 63.14863 8.14605 3331 ft 181 kts 255°
2026-05-05 15:43 63.14570 8.11919 3040 ft 178 kts 255°
2026-05-05 15:43 63.14284 8.09299 2770 ft 173 kts 255°
2026-05-05 15:44 63.14009 8.06777 2515 ft 165 kts 256°
2026-05-05 15:44 63.13749 8.04392 2284 ft 155 kts 256°
2026-05-05 15:44 63.13499 8.02096 2023 ft 150 kts 255°
2026-05-05 15:44 63.13262 7.99918 1831 ft 140 kts 255°
2026-05-05 15:45 63.13037 7.97835 1654 ft 139 kts 255°
2026-05-05 15:45 63.12812 7.95770 1360 ft 138 kts 256°
2026-05-05 15:45 63.12596 7.93737 1150 ft 133 kts 256°
2026-05-05 15:45 63.12408 7.91704 905 ft 139 kts 260°
2026-05-05 15:46 63.12247 7.89579 688 ft 140 kts 256°
2026-05-05 15:46 63.11962 7.87542 476 ft 138 kts 251°
2026-05-05 15:46 63.11650 7.85556 295 ft 134 kts 252°
2026-05-05 15:46 63.11369 7.83697 217 ft 117 kts 251°
2026-05-05 15:47 63.11170 7.82357 213 ft 61 kts 251°
2026-05-05 15:47 63.11109 7.81963 213 ft 24 kts 251°